sat.trackr.live / text

‹ back to catalog

STARLINK-5802

NORAD 56552 · 2023-065BB

PAYLOAD ACTIVE UNKNOWN

§ Identity

Operator
Country
US
Launch date
2023-05-14
Launch site
AFETR
Launch vehicle
Mass (kg)
RCS (m²)

Purposes: comms

External: N2YO · Heavens-Above · Gunter

§ Orbital elements

Epoch: 2026-09-19T06:09:15.712704Z

Period
94.27 min
Inclination
43.0035°
Eccentricity
0.0001670
Mean motion
15.27576958 rev/d
Perigee alt
481.9 km
Apogee alt
484.2 km
Semi-major
6,861.2 km
B*
4.0988e-5
RAAN
210.5926°
Arg perigee
271.6183°
Mean anomaly
88.4478°
Rev number
18,607

§ Raw data

STARLINK-58021 56552U 23065BB  26262.25643186  .00000866  00000+0  40988-4 0  99942 56552  43.0035 210.5926 0001670 271.6183  88.4478 15.27576958186073

JSON: /api/v1/satellites/56552 · /tle

For live sub-satellite position, see the globe view (requires WebGL).

§ Visibility from observer

Set your observer location to see the next 7 days of passes ≥ 10°. The values pass through the URL so the page stays shareable.

No JS? Fill the form by hand. The geolocation button needs JavaScript.